[[{"header":{"parameterUnit":"m.s-1","parameterCategory":1,"la1":30.2992,"la2":30.254,"lo1":-89.0895,"lo2":-89.0443,"dy":0.0025,"dx":0.0025,"nx":19,"ny":19,"refTime":"2026-03-29T21:00:00:Z","depth":0,"parameterNumber":2,"parameterNumberName":"U-component_of_WINDS"},"data":[0,0,0,-6.1926,-6.1929,-6.2053,-6.2054,-6.2236,-6.2238,0,0,0,0,0,0,0,0,0,0,0,-6.1906,-6.1908,-6.1926,-6.1929,-6.2053,-6.2054,-6.2236,-6.2238,0,0,0,0,0,0,0,0,0,0,0,-6.1905,-6.1907,-6.191,-6.193,-6.2053,-6.2054,-6.2236,-6.2133,0,0,0,0,0,0,0,0,0,0,-6.2008,-6.2006,-6.1907,-6.191,-6.1931,-6.2053,-6.2054,-6.2127,-6.2139,-6.2191,0,-6.2243,0,-6.2244,-6.2252,-6.2253,0,0,0,-6.1916,-6.1997,-6.2015,-6.191,-6.1932,-6.2053,-6.1994,-6.2134,-6.2147,-6.2207,-6.2246,-6.2252,-6.2247,-6.2254,-6.2255,-6.26,-6.2602,0,0,-6.1909,-6.1937,-6.2006,-6.2025,-6.201,-6.199,-6.1998,-6.2141,-6.2185,-6.2246,-6.2256,-6.225,-6.2255,-6.2257,-6.2598,-6.26,0,0,0,-6.1899,-6.1932,-6.1947,-6.2018,-6.2039,-6.1994,-6.2003,-6.2178,-6.2181,-6.2257,-6.2252,-6.2256,-6.2259,-6.2595,-6.2599,-6.2732,0,0,0,-6.1894,-6.1926,-6.1945,-6.1962,-6.2037,-6.2111,-6.2037,-6.2171,-6.2186,-6.2251,-6.2256,-6.2261,-6.2593,-6.2597,-6.2723,-6.279,0,0,0,-6.1892,-6.1925,-6.1949,-6.1964,-6.2018,-6.2108,-6.2118,-6.2174,-6.2184,-6.2253,-6.2261,-6.2591,-6.2596,-6.2716,-6.2777,-6.2886,0,0,0,-6.1897,-6.2067,-6.1952,-6.214,-6.2018,-6.2192,-6.2117,-6.2245,-6.232,-6.2257,-6.2593,-6.2598,-6.2713,-6.2768,-6.2878,-6.298,-6.3026,0,0,-6.2126,-6.2096,-6.2204,-6.2105,-6.2306,-6.217,-6.239,-6.2433,-6.2415,-6.2539,-6.2547,-6.2726,-6.2776,-6.2884,-6.3284,-6.3321,0,0,0,-6.2286,-6.2364,-6.2411,-6.2485,-6.2524,-6.256,-6.2568,-6.2584,-6.2687,-6.2485,-6.2797,-6.2825,-6.2888,-6.2935,-6.2966,-6.3016,-6.2623,-6.2622,-6.2622,-6.2646,-6.2615,-6.2791,-6.2774,-6.2847,-6.2853,-6.2908,-6.293,-6.2877,-6.2951,-6.2986,-6.3233,-6.329,-6.3313,-6.3366,-6.3041,-6.3042,-6.3042,-6.3043,-6.2975,-6.3078,-6.3006,-6.3149,-6.3115,-6.3235,-6.3248,-6.3206,-6.3311,-6.3204,-6.3257,-6.3139,-6.3355,-6.3399,-6.3053,-6.3051,-6.305,-6.3049,-6.3048,-6.3203,-6.3247,-6.3266,-6.3368,-6.3451,-6.3429,-6.3534,-6.3499,-6.3467,-6.352,-6.3551,-6.3549,-6.3538,-6.3539,-6.354,-6.354,-6.3541,-6.3542,-6.3542,-6.3431,-6.3447,-6.354,-6.3596,-6.3638,-6.369,-6.3699,-6.3739,-6.3774,-6.374,-6.374,-6.3677,-6.3384,-6.3308,-6.3555,-6.3553,-6.3551,-6.355,-6.3549,-6.3768,-6.3686,-6.383,-6.3873,-6.3934,-6.4017,-6.3974,-6.4058,-6.4087,-6.4139,-6.4066,-6.3857,-6.3822,-6.3796,-6.3733,-6.4075,-6.4075,-6.4075,-6.4075,-6.3957,-6.3938,-6.4075,-6.4145,-6.421,-6.4186,-6.4346,-6.4355,-6.4351,-6.4366,-6.4312,-6.4227,-6.4203,-6.4182,-6.4148,-6.4088,-6.4514,-6.4514,-6.4514,-6.416,-6.4146,-6.4289,-6.4286,-6.4332,-6.4371,-6.452,-6.4601,-6.4581,-6.4531,-6.4376,-6.4357,-6.4219,-6.4177,-6.4119,-6.4068,-6.3957,0,0]},{"header":{"parameterUnit":"m.s-1","parameterCategory":1,"la1":30.2992,"la2":30.254,"lo1":-89.0895,"lo2":-89.0443,"dy":0.0025,"dx":0.0025,"nx":19,"ny":19,"refTime":"2026-03-29T21:00:00:Z","depth":0,"parameterNumber":3,"parameterNumberName":"V-component_of_WINDS"},"data":[0,0,0,2.8293,2.8294,2.8318,2.8318,2.8371,2.8372,0,0,0,0,0,0,0,0,0,0,0,2.8299,2.83,2.8293,2.8294,2.8318,2.8318,2.8371,2.8372,0,0,0,0,0,0,0,0,0,0,0,2.8299,2.83,2.8301,2.8294,2.8318,2.8318,2.8371,2.8345,0,0,0,0,0,0,0,0,0,0,2.8317,2.8335,2.8299,2.8301,2.8294,2.8318,2.8318,2.8343,2.8346,2.8369,0,2.8393,0,2.8384,2.8377,2.8377,0,0,0,2.8284,2.8333,2.8328,2.8301,2.8295,2.8318,2.8305,2.8345,2.8348,2.8374,2.8394,2.8395,2.8384,2.8377,2.8377,2.8544,2.8546,0,0,2.8283,2.831,2.8325,2.8331,2.8328,2.8304,2.8305,2.8347,2.837,2.8394,2.8396,2.8385,2.8378,2.8378,2.8543,2.8545,0,0,0,2.8286,2.831,2.8303,2.8329,2.8332,2.8305,2.8307,2.8368,2.8364,2.8396,2.8386,2.8378,2.8379,2.8542,2.8544,2.8632,0,0,0,2.8284,2.8311,2.8303,2.832,2.8332,2.835,2.8328,2.8361,2.8365,2.8386,2.8378,2.838,2.854,2.8543,2.8626,2.8668,0,0,0,2.8293,2.8312,2.832,2.8321,2.8333,2.8349,2.8347,2.8361,2.8359,2.8377,2.838,2.8539,2.8542,2.8621,2.866,2.872,0,0,0,2.8309,2.8397,2.8322,2.8415,2.8333,2.8404,2.8346,2.8397,2.8423,2.8378,2.8541,2.8544,2.862,2.8655,2.8715,2.8775,2.8803,0,0,2.8434,2.8413,2.8466,2.8399,2.8491,2.8398,2.8502,2.8499,2.8476,2.8523,2.8527,2.8628,2.866,2.8719,2.8951,2.8973,0,0,0,2.8514,2.8553,2.8571,2.8598,2.8599,2.8604,2.8583,2.8583,2.8622,2.8506,2.8666,2.8683,2.8717,2.8745,2.8764,2.8791,2.8558,2.8557,2.8557,2.8728,2.8696,2.8781,2.8752,2.8779,2.8759,2.8777,2.8773,2.8731,2.877,2.8783,2.8927,2.896,2.8974,2.9004,2.8812,2.8813,2.8813,2.8813,2.8908,2.8957,2.8902,2.8965,2.893,2.8983,2.8968,2.8936,2.8981,2.8914,2.8942,2.8871,2.9,2.9024,2.882,2.8818,2.8818,2.8817,2.8817,2.9043,2.9061,2.9061,2.9098,2.9131,2.9099,2.9145,2.9111,2.9079,2.9108,2.9118,2.9117,2.9111,2.9115,2.9116,2.9116,2.9117,2.9117,2.9118,2.9184,2.9181,2.9224,2.9235,2.9249,2.9264,2.9246,2.9259,2.9265,2.9237,2.9236,2.9191,2.9019,2.8976,2.9125,2.9124,2.9123,2.9122,2.9122,2.9376,2.9328,2.9395,2.9409,2.9421,2.9457,2.9415,2.9444,2.945,2.9474,2.9424,2.9303,2.9277,2.9262,2.9226,2.9431,2.9431,2.9431,2.9431,2.949,2.9475,2.9537,2.9562,2.9584,2.9554,2.9631,2.962,2.96,2.9602,2.9568,2.9518,2.9504,2.9487,2.9466,2.9432,2.9685,2.9685,2.9685,2.9606,2.9593,2.9664,2.9646,2.9654,2.9661,2.9733,2.9765,2.9733,2.9695,2.9602,2.9592,2.9511,2.9486,2.9444,2.9414,2.9351,0,0]}]]